Theta_e
322 333 333 334 343 342 341 345 339 336 346 348 348 349 353 352 355 357 347 344 352 353 353 350 346 344 341 346 347 347 347 347 348 346 342 338 334 332 331 332 331 332 333 334 332 331 330 321 317
331 327 329 335 343 346 348 340 337 341 347 347 346 344 349 352 349 347 344 345 351 350 351 351 347 347 346 340 344 345 343 345 345 343 341 335 329 331 330 332 333 332 333 333 332 329 324 321 319
322 324 330 336 344 339 341 337 337 342 345 344 344 344 351 355 347 348 346 346 344 349 351 351 346 346 346 341 342 343 343 343 343 342 339 338 336 331 331 333 333 332 333 332 332 330 322 321 321
326 328 331 339 340 337 339 339 339 341 342 341 343 353 350 351 347 347 347 345 342 349 351 350 347 345 345 341 341 342 342 343 342 339 337 336 337 333 334 333 332 332 331 331 329 322 322 322 322
324 328 334 337 336 335 335 338 343 345 344 343 343 350 354 350 347 345 344 341 347 347 348 348 344 344 341 341 342 341 342 342 340 338 337 336 334 332 332 332 333 332 330 323 322 321 322 322 322
327 330 335 336 332 333 333 334 341 345 343 343 345 349 354 349 343 340 341 341 345 343 345 346 342 340 341 342 339 341 340 339 338 336 336 332 329 329 329 331 331 330 325 324 323 321 322 322 322
327 331 336 335 332 334 337 338 341 347 346 349 345 350 351 347 343 341 340 341 343 344 345 344 345 342 339 340 339 340 337 333 332 331 328 326 324 324 324 323 325 326 326 323 322 321 321 322 323
327 330 331 331 335 339 340 344 348 351 353 347 347 351 352 344 343 342 345 344 343 344 343 343 345 344 343 343 339 337 332 326 326 325 325 324 322 322 321 321 323 325 327 325 322 321 321 323 324
327 328 329 329 334 338 342 348 352 352 355 353 352 351 346 343 344 343 344 343 342 341 340 340 341 343 344 343 338 334 327 323 321 321 322 323 329 327 327 330 328 323 327 325 323 321 322 324 326
330 330 333 332 336 340 343 348 352 354 353 352 349 346 345 345 344 342 342 340 341 341 340 339 339 341 342 341 340 338 332 326 326 329 328 330 332 332 331 331 329 325 326 325 324 325 327 327 326
335 336 333 338 342 345 348 349 349 354 355 350 349 345 341 342 342 341 340 340 340 339 337 336 336 337 338 338 338 336 333 330 332 331 333 332 333 332 332 330 333 333 331 332 329 328 328 327 325
338 338 336 339 339 344 350 350 349 348 345 340 339 338 337 336 336 338 337 337 336 335 335 335 335 336 337 336 334 334 331 329 329 329 333 333 333 333 332 332 332 332 331 329 329 325 325 323 323
340 340 341 344 346 347 347 348 346 344 339 337 336 336 336 335 335 334 334 334 335 335 333 334 333 333 334 333 332 329 328 327 328 329 330 329 331 331 331 332 331 329 329 326 326 323 323 320 321
340 341 343 344 345 346 347 346 345 343 337 338 338 336 334 335 332 332 333 334 334 334 333 332 332 332 331 331 331 330 330 330 329 328 328 328 327 326 328 327 328 325 323 322 323 323 321 320 320
341 342 343 344 343 346 345 347 345 340 338 337 337 336 334 332 331 330 330 330 329 328 328 328 327 327 328 328 329 328 328 328 326 326 324 326 324 325 326 324 323 323 323 323 322 321 321 320 321
340 339 345 342 342 343 341 352 344 339 340 338 337 334 331 329 328 326 326 325 324 323 324 325 325 326 326 325 324 324 323 323 323 323 320 320 319 320 320 321 322 323 323 322 321 320 318 318 315
335 341 340 342 342 341 342 350 343 341 342 340 338 332 330 328 325 322 322 323 323 325 323 321 320 320 320 320 320 321 323 321 323 322 320 317 314 313 313 314 316 318 319 320 321 320 318 316 313
341 339 335 337 340 341 342 345 343 341 339 339 333 332 331 329 324 323 323 325 324 323 322 322 321 320 318 317 317 316 316 316 319 320 320 320 320 319 321 320 321 320 321 320 319 320 317 315 315
332 333 335 337 339 338 343 342 342 339 338 336 334 333 331 328 325 326 326 326 324 322 321 322 321 320 318 315 315 315 315 316 316 317 314 315 315 314 315 315 315 318 320 322 322 321 320 318 316
331 333 341 341 339 339 341 343 340 338 338 335 333 333 333 331 329 327 326 324 323 322 322 322 321 320 318 314 314 314 314 314 315 314 314 313 312 313 313 314 315 315 317 317 320 320 320 318 317
332 332 331 333 336 338 341 344 344 339 337 334 333 332 332 331 330 327 324 324 322 321 321 321 320 319 316 315 314 314 314 313 313 312 312 311 312 312 312 314 314 315 316 316 319 321 320 318 317
332 331 330 332 336 333 342 339 346 341 338 336 334 333 331 331 327 324 323 322 321 321 320 320 318 317 315 315 314 314 314 313 312 312 312 311 311 311 312 314 314 315 315 315 317 318 319 319 317
332 331 333 332 335 336 337 346 348 344 341 337 336 332 332 328 325 323 322 321 320 319 318 317 316 316 315 313 313 312 312 312 312 312 312 312 310 311 313 314 315 315 315 315 317 317 319 318 318
331 332 332 332 333 339 340 341 348 345 340 339 334 332 327 324 322 321 320 321 319 318 317 315 315 314 313 313 312 312 311 313 313 313 312 312 311 311 313 314 314 315 316 316 316 316 318 317 318
332 332 331 331 329 329 335 334 343 338 336 336 334 329 326 323 321 322 322 321 318 316 315 314 313 312 311 311 312 312 312 312 312 312 312 311 311 311 313 313 314 314 314 314 315 315 316 316 316
330 332 332 333 327 327 328 343 340 333 333 332 330 328 324 322 321 321 320 319 317 314 313 313 312 311 311 311 312 312 312 311 310 310 310 310 310 311 312 313 313 314 314 314 314 313 314 315 316
330 330 328 328 330 329 338 341 335 333 333 331 330 326 324 324 322 322 320 317 313 314 313 311 311 311 310 311 311 310 309 309 308 308 308 309 310 310 311 312 312 312 312 312 312 312 313 313 315
328 326 329 328 328 327 336 339 339 333 332 331 329 327 325 323 322 319 316 314 314 312 312 311 311 311 310 310 309 308 308 307 307 307 308 307 308 310 310 311 311 311 312 311 311 310 308 311 312
328 330 330 331 335 330 330 341 331 329 328 329 328 325 322 321 319 316 315 314 312 312 312 311 311 310 310 309 308 308 307 306 306 305 305 306 307 309 309 309 307 308 310 310 310 307 309 308 310
329 331 332 335 333 331 330 341 328 327 326 324 324 321 320 319 317 315 313 312 311 310 310 310 310 309 308 307 308 307 304 305 306 306 305 305 305 307 308 308 308 308 308 310 310 310 310 310 311
Wind_Speed
9 5 10 12 4 7 9 16 19 19 17 17 13 14 22 19 16 6 9 6 20 18 11 10 11 8 8 8 7 9 12 12 11 10 11 13 15 16 17 18 18 18 18 19 19 19 19 20 21
11 11 13 6 6 7 15 2 21 19 14 11 6 14 19 20 15 12 12 8 17 11 9 9 9 9 6 7 7 8 8 8 8 9 11 13 16 17 18 18 18 17 17 18 18 18 19 19 20
11 13 10 10 9 6 15 17 17 17 9 5 16 15 11 8 16 7 12 10 10 11 10 10 9 7 6 7 8 7 8 7 8 10 11 11 13 17 17 18 17 16 16 16 16 16 17 17 18
9 10 7 9 20 15 15 10 16 17 15 14 15 16 11 11 16 14 9 8 9 18 14 10 8 7 8 9 8 7 6 7 9 11 12 12 13 14 15 15 14 14 14 14 13 13 14 15 17
13 9 13 7 15 11 7 3 25 17 19 19 20 18 16 9 10 13 11 8 21 15 15 9 8 7 8 7 8 7 8 9 10 10 11 12 14 14 12 11 10 10 11 10 10 11 12 14 16
12 10 6 8 16 10 8 6 9 21 20 21 18 15 10 5 8 12 10 9 21 13 9 10 8 8 7 6 6 6 8 9 9 10 11 12 13 12 11 8 8 6 6 7 7 8 11 13 15
16 12 18 14 14 10 3 8 11 8 24 19 8 17 11 10 6 12 11 11 20 19 14 8 9 5 6 6 6 7 8 8 9 9 10 11 11 11 9 7 6 5 3 2 3 5 9 12 15
10 13 3 7 10 14 4 12 17 20 18 13 4 9 13 13 10 13 22 20 15 12 10 9 8 5 7 8 7 7 5 6 6 7 9 9 8 7 6 2 4 3 2 2 3 5 9 14 11
13 14 8 17 15 12 10 13 18 20 18 20 22 21 16 13 15 8 12 16 10 11 9 9 8 7 7 7 7 5 5 4 2 4 6 7 8 6 7 8 4 3 4 5 6 7 11 11 10
9 5 16 7 9 11 13 15 12 16 16 15 17 17 18 15 11 11 16 11 11 11 10 9 8 5 4 5 5 7 9 9 3 8 8 8 8 5 3 4 8 9 9 8 8 5 8 8 11
8 11 9 8 12 13 12 13 14 14 12 12 10 15 17 18 17 17 14 13 14 15 15 15 15 10 10 6 2 1 8 7 7 10 9 11 9 10 11 12 12 9 7 8 8 10 7 9 12
13 9 8 11 4 9 15 16 21 22 11 13 15 16 18 17 14 15 16 13 16 16 17 16 14 14 12 12 10 6 9 2 4 7 4 9 15 14 10 14 10 1 3 4 6 8 9 11 13
11 11 13 14 15 17 18 18 14 16 15 12 15 16 14 15 16 16 14 15 14 17 18 17 16 17 15 14 12 9 8 7 10 6 10 8 12 11 7 5 9 10 9 11 9 12 14 14 10
9 10 12 11 14 14 15 12 6 9 12 11 13 14 13 16 16 14 13 15 16 15 15 15 15 15 13 13 11 8 6 5 6 6 4 7 7 10 8 6 6 7 7 12 16 18 18 11 13
14 13 13 15 11 15 18 13 10 8 11 12 12 13 15 17 15 16 14 15 15 17 15 15 15 15 13 11 12 9 8 6 7 3 6 6 5 6 6 10 12 13 18 20 21 20 16 11 10
15 13 10 13 10 6 7 10 12 10 12 13 11 13 12 14 15 14 14 14 14 14 14 14 14 13 13 12 9 8 8 6 6 7 8 8 9 9 9 7 7 9 9 10 12 11 9 8 12
8 8 7 10 2 2 4 10 7 11 9 14 12 13 11 12 13 11 11 11 11 11 14 15 15 14 13 11 10 8 5 8 7 4 7 11 9 9 10 11 13 12 11 11 13 15 11 11 12
11 11 5 10 9 5 6 9 10 7 8 11 13 11 11 10 8 8 8 8 11 11 11 11 14 15 12 12 13 12 12 12 8 4 6 10 11 12 11 13 11 8 11 12 13 11 11 12 15
7 10 5 5 5 4 5 7 8 8 11 11 7 9 8 8 10 10 8 9 9 11 11 12 13 14 16 16 14 14 14 12 11 7 9 11 9 14 14 15 14 11 16 13 13 13 11 13 14
6 8 14 7 3 5 8 8 6 7 8 14 8 7 11 12 11 11 8 10 9 7 7 11 13 14 15 17 14 13 15 12 10 5 13 8 13 14 16 16 16 15 17 17 14 14 13 13 9
10 16 14 10 3 11 3 14 14 10 10 10 8 8 7 9 9 8 7 5 5 6 8 12 14 14 14 16 16 16 16 14 16 17 18 18 15 14 15 15 14 15 15 16 11 11 12 13 12
6 7 9 9 9 13 19 12 18 14 10 7 5 7 3 8 9 8 4 7 7 8 10 10 11 13 15 16 19 16 18 18 17 14 13 16 13 12 15 11 14 14 15 16 11 9 9 12 13
10 12 14 16 14 17 8 5 7 13 8 7 5 6 5 9 8 6 22 18 5 6 11 14 12 14 17 17 19 15 17 18 16 16 16 15 14 11 11 10 12 12 12 13 11 9 7 9 8
7 13 17 16 8 6 8 8 14 10 12 5 10 9 8 8 10 10 3 13 8 12 15 17 16 18 19 18 16 15 17 17 18 16 15 16 16 15 10 10 12 10 9 9 9 7 7 8 9
9 15 12 13 7 9 12 2 8 13 16 11 13 10 9 5 1 1 6 16 13 13 13 19 21 19 20 21 18 19 18 17 16 17 16 18 17 15 15 13 11 10 9 8 9 9 7 8 9
19 8 9 14 15 15 12 6 5 9 10 13 12 7 6 3 1 4 10 13 15 16 15 13 17 16 18 17 19 17 16 16 16 17 17 16 18 15 14 11 8 8 8 9 10 8 9 8 6
13 12 16 11 19 14 8 11 10 9 7 4 4 6 1 4 4 10 9 12 13 11 17 14 13 16 19 18 15 15 17 18 19 18 16 15 15 16 14 9 8 8 9 10 9 10 11 8 6
13 9 10 8 7 9 17 10 7 10 6 4 1 1 4 1 12 7 10 10 8 18 17 14 15 19 19 16 17 18 19 18 18 16 15 14 16 12 10 10 10 8 9 9 9 10 12 9 7
12 8 6 4 7 8 9 7 9 9 11 9 6 4 10 9 7 7 7 18 22 18 17 18 18 17 16 15 16 15 16 20 18 17 14 13 13 10 9 9 11 10 8 7 6 8 8 9 8
4 8 6 8 7 7 11 5 4 9 12 8 7 7 8 9 11 13 17 20 18 18 19 20 20 16 15 16 15 16 21 19 15 17 14 11 10 9 9 9 8 9 11 8 6 4 4 5 6
Wind_Direction
283 265 273 264 253 111 99 88 83 69 64 58 51 48 68 43 21 58 106 81 88 98 121 133 135 128 127 129 131 141 144 144 154 149 139 131 128 124 120 114 109 101 93 91 87 81 76 68 62
276 275 257 278 18 300 73 168 80 83 88 107 89 91 75 59 85 83 102 124 83 92 121 128 132 127 134 133 138 138 139 135 140 136 130 135 136 131 125 118 111 100 97 93 88 77 68 59 52
281 268 268 197 217 63 110 96 101 108 126 148 97 56 40 4 57 83 94 110 95 108 108 120 128 125 128 136 134 137 138 147 142 128 124 122 127 130 126 120 113 102 97 89 83 76 63 54 47
263 237 246 47 287 81 91 123 118 128 119 78 98 89 95 15 60 85 107 95 113 112 100 112 118 124 130 144 142 148 156 143 129 127 127 127 127 127 123 122 115 103 96 91 80 68 56 46 37
241 258 256 158 74 65 69 12 62 327 102 91 88 82 89 49 77 97 110 119 84 87 93 100 106 118 126 145 144 146 145 134 128 129 128 128 133 136 134 124 111 103 95 89 73 61 47 35 26
254 253 353 26 96 100 37 279 146 179 107 95 97 91 77 108 105 103 111 95 95 88 98 112 100 113 123 134 136 136 135 132 132 135 138 138 143 143 140 131 124 116 101 87 72 47 34 23 11
254 264 169 187 110 99 92 287 341 86 74 48 90 78 114 124 129 106 95 95 79 78 87 114 91 103 125 117 126 128 138 145 150 161 156 150 152 154 153 151 151 149 142 95 50 25 15 7 4
282 283 151 53 116 73 78 35 20 52 57 96 318 125 129 126 138 93 80 74 73 71 65 68 63 72 90 116 133 139 151 160 159 171 172 170 167 171 163 177 183 166 205 279 320 349 354 353 354
264 276 85 33 50 100 133 80 65 61 65 49 47 73 108 136 98 123 79 78 72 59 50 57 53 70 80 119 127 121 143 143 164 198 205 197 194 196 219 193 224 262 242 276 302 329 341 355 331
295 33 60 15 53 65 48 107 131 113 93 72 75 73 76 68 72 63 58 69 61 51 45 35 43 54 95 118 135 127 136 154 224 239 207 242 237 251 257 217 263 260 252 275 294 318 337 321 341
21 32 58 87 74 81 72 62 38 100 54 57 77 61 66 72 72 75 75 58 57 54 40 31 40 35 44 44 106 200 245 170 185 298 308 268 283 257 250 252 227 214 221 252 248 257 300 349 336
84 51 89 92 63 81 75 75 57 59 79 75 76 73 77 73 61 70 69 48 61 60 51 46 46 42 35 63 64 46 51 38 296 268 271 304 287 263 276 283 328 36 144 310 329 21 15 340 324
101 93 93 85 75 71 75 70 81 77 81 82 90 85 81 84 85 77 73 69 71 62 55 52 51 49 43 46 48 44 46 41 13 22 31 355 345 345 353 351 344 4 11 14 11 356 342 329 321
122 123 120 123 110 97 96 86 86 96 102 91 85 86 91 84 74 71 67 57 49 59 54 50 53 51 50 54 48 45 37 47 39 36 37 10 340 324 353 345 351 351 335 327 324 318 318 311 309
144 146 156 143 140 137 127 78 91 107 108 94 93 95 73 74 67 63 60 55 44 46 48 46 45 46 45 53 50 41 40 18 16 6 345 345 333 307 315 299 291 291 291 296 298 300 289 282 303
200 191 148 137 154 140 234 108 128 145 130 118 111 89 83 73 68 63 61 62 59 60 55 51 47 42 42 41 45 36 27 16 5 351 341 331 333 326 324 317 311 314 289 286 305 279 269 268 279
306 197 190 104 116 314 303 110 156 163 155 124 116 101 99 95 79 72 72 71 64 57 52 46 38 32 27 26 13 6 3 350 346 334 343 350 351 353 344 324 307 290 282 283 268 261 256 255 262
180 260 67 36 63 53 63 112 135 162 108 113 116 111 97 94 103 116 112 95 73 62 50 44 33 24 15 10 357 353 341 335 321 339 348 344 331 327 315 311 290 289 279 268 254 241 237 242 271
7 350 27 105 104 298 110 143 145 136 119 135 126 114 123 132 151 123 129 117 106 68 30 26 25 20 13 8 1 357 347 341 335 1 349 327 322 324 310 307 308 285 264 259 250 243 233 243 240
301 301 10 134 158 262 170 155 171 142 155 115 131 130 160 134 147 126 119 87 80 63 38 16 18 15 13 7 3 357 338 331 332 339 338 25 343 327 320 329 310 313 308 295 276 253 244 239 250
69 335 358 349 325 241 228 198 192 157 138 132 144 154 112 150 90 117 81 108 70 55 24 15 13 9 17 4 355 353 332 335 358 338 340 342 336 321 306 302 297 298 294 295 295 278 236 241 242
352 328 319 291 268 294 208 291 164 169 155 159 139 109 102 98 88 42 106 37 37 15 8 22 7 7 3 358 348 349 342 355 342 342 339 329 314 308 311 309 298 300 293 296 305 285 247 253 272
5 332 309 298 268 296 40 61 128 111 154 184 124 97 123 80 109 49 26 5 324 3 25 13 354 354 359 352 348 358 344 327 328 326 327 335 327 319 294 313 305 308 301 301 307 300 265 268 269
308 281 271 256 269 255 149 247 51 41 36 121 107 109 83 69 53 47 10 292 30 9 10 353 355 7 353 351 358 338 329 332 325 324 326 334 328 325 322 327 314 316 317 326 328 320 294 279 264
290 334 318 314 329 311 210 298 43 41 35 70 114 112 114 116 60 72 272 303 39 11 360 341 11 0 5 353 341 340 341 335 335 339 339 337 337 331 337 330 327 335 336 345 347 345 333 290 268
296 339 303 328 313 309 329 58 79 47 59 109 136 145 101 32 253 281 28 7 1 2 333 1 4 4 353 350 349 350 352 348 341 338 335 332 328 335 332 338 347 360 14 20 10 1 344 321 300
347 332 333 287 271 275 108 95 106 61 65 67 119 137 132 241 288 22 21 11 353 326 13 32 13 343 342 4 354 353 347 345 336 330 327 326 325 329 338 343 6 23 37 43 34 27 21 26 31
342 313 332 328 305 321 93 80 46 35 50 36 36 335 22 259 51 41 19 339 321 16 46 16 350 351 5 360 354 349 353 359 352 346 344 345 342 343 4 29 32 38 42 42 45 41 42 43 38
341 11 336 319 329 318 323 82 47 20 37 29 35 21 36 36 42 358 336 18 24 20 355 354 354 352 9 356 357 2 6 359 354 1 354 352 355 8 11 35 37 34 27 29 37 42 34 24 14
45 7 359 335 329 3 295 78 65 29 45 24 76 31 33 26 16 3 3 33 17 6 357 3 9 12 357 357 12 13 5 349 357 360 352 351 352 3 5 22 22 21 16 356 357 9 5 352 348